Location: Berlise
(49.6641°N, 4.1077°E)
Time: 20:13:02
(UTC+00:00)

Cosmos 1570 Rocket - Pass Details

Date: 27 January 2021
Orbit: 762 x 789 km, 74.1° (Epoch: 27 February)

Event Time Altitude Azimuth Distance (km) Brightness Sun altitude
Exits shadow 04:57:36 52° 228° (SW) 951 4.1 -23.3°
Maximum altitude 04:58:50 74° 295° (WNW) 803 3.8 -23.1°
Drops below altitude 10° 05:04:07 10° 21° (NNE) 2,323 6.7 -22.3°
Sets 05:06:31 0° 23° (NNE) 3,258 7.5 -21.9°
